This is the latest recevied weather packets stored in our database for station/object K7TSD. If no packets are shown the sender has not sent any weather packets the latest 10 day(s).
| Time | Temp. | Humidity | Pressure | Rain* | Wind** | Luminosity | Snow |
|---|---|---|---|---|---|---|---|
| 1777616963 | 1.67° C | 67% | 1018.6 hPa | 0 mm | - | 0 W/m² | - |
| 1777616658 | 1.67° C | 67% | 1018.6 hPa | 0 mm | - | 0 W/m² | - |
| 1777616353 | 1.67° C | 67% | 1018.6 hPa | 0 mm | - | 0 W/m² | - |
| 1777616050 | 1.67° C | 68% | 1018.7 hPa | 0 mm | - | 0 W/m² | - |
| 1777615747 | 1.67° C | 67% | 1018.7 hPa | 0 mm | - | 0 W/m² | - |
| 1777615444 | 1.11° C | 68% | 1018.9 hPa | 0 mm | - | 0 W/m² | - |
| 1777615143 | 1.11° C | 69% | 1018.6 hPa | 0 mm | - | 0 W/m² | - |
| 1777614839 | 1.11° C | 69% | 1019 hPa | 0 mm | - | 0 W/m² | - |
| 1777614536 | 1.67° C | 70% | 1018.8 hPa | 0 mm | - | 0 W/m² | - |
| 1777614231 | 1.67° C | 70% | 1018.9 hPa | 0 mm | - | 0 W/m² | - |
| 1777613931 | 1.67° C | 69% | 1018.7 hPa | 0 mm | - | 0 W/m² | - |
| 1777613628 | 1.67° C | 69% | 1018.9 hPa | 0 mm | - | 0 W/m² | - |
| 1777613326 | 2.22° C | 69% | 1018.9 hPa | 0 mm | - | 0 W/m² | - |
| 1777613022 | 2.22° C | 68% | 1018.7 hPa | 0 mm | - | 0 W/m² | - |
| 1777612718 | 2.22° C | 68% | 1018.8 hPa | 0 mm | - | 0 W/m² | - |
| 1777612414 | 2.22° C | 68% | 1018.7 hPa | 0 mm | - | 0 W/m² | - |
| 1777612109 | 2.78° C | 68% | 1018.6 hPa | 0 mm | - | 0 W/m² | - |
| 1777611805 | 2.22° C | 68% | 1018.7 hPa | 0 mm | - | 0 W/m² | - |
| 1777611501 | 2.78° C | 68% | 1018.9 hPa | 0 mm | - | 0 W/m² | - |
| 1777611199 | 2.78° C | 67% | 1018.7 hPa | 0 mm | - | 0 W/m² | - |
| 1777610895 | 2.78° C | 67% | 1018.7 hPa | 0 mm | - | 0 W/m² | - |
| 1777610590 | 3.33° C | 66% | 1018.8 hPa | 0 mm | - | 0 W/m² | - |
| 1777610289 | 3.33° C | 65% | 1018.8 hPa | 0 mm | - | 0 W/m² | - |
| 1777609986 | 2.78° C | 66% | 1018.7 hPa | 0 mm | - | 0 W/m² | - |
| 1777609682 | 2.78° C | 66% | 1018.7 hPa | 0 mm | - | 0 W/m² | - |
* Rain latest hour (hover to see other rain measurements)
** Current wind speed in m/s (hover to see current wind gust speed)